Voltar ao catálogo

OPS 4682 DEB

AtivoPO
NORAD 59149·DEBRIS·🇺🇸 United States

Lançado Apr 3, 1965 de Vandenberg Space Force Base

Loading…

Próximas Passagens (próximas 24 horas)

TLE

AtualizadoSource: Space-Track

Época: Sep 14, 2026, 07:18 UTC

1 59149U 65027HR  26257.30463077 -.00000283  00000-0 -93932-3 0  9994
2 59149  90.2589  19.3090 0037284 259.3813 100.3110 13.01730712517240

Acompanhe OPS 4682 DEB em tempo real com AllMySat

Download on the App Store